Voltar ao catálogo

NIMBUS 2 DEB

AtivoLEO
NORAD 28618·DEBRIS·🇺🇸 United States

Lançado May 15, 1966 de Vandenberg Space Force Base

Loading…

Próximas Passagens (próximas 24 horas)

TLE

ObsoletoSource: Space-Track

Época: Sep 7, 2026, 08:02 UTC

1 28618U 66040AH  26250.33529463  .00003547  00000-0  24634-2 0  9991
2 28618 100.2521  87.8301 0033837 260.0884 275.9610 13.99352099660986

Acompanhe NIMBUS 2 DEB em tempo real com AllMySat

Download on the App Store